Wind_Speed
15 15 15 14 14 15 15 16 16 16 15 13 12 12 11 10 10 10 10 10 9 8 7 6 7 9 9 7 8 11 13 12 12 14 14 14 15 16 18 20 22 23 21 20 21 21 20 19 18 15 14 15 15 16 15 14 14 14 15 14 14 13 11 10 9 8 9 12 14 15 16 15 14 14 13 13 14 13 12 11 11 10 9 9 9
16 16 15 15 15 16 16 17 16 16 15 13 12 12 11 11 11 10 10 10 10 9 8 7 7 7 6 6 7 9 11 11 11 12 12 13 14 14 16 18 21 22 20 19 22 24 22 20 19 17 16 16 15 16 16 15 14 15 15 15 14 14 12 10 9 9 10 12 14 16 15 15 14 14 14 14 15 15 14 13 12 11 11 10 10
17 16 16 16 16 16 17 17 16 16 15 13 11 11 11 11 11 11 11 11 11 10 9 8 8 7 6 6 8 9 9 11 12 12 12 12 13 14 16 17 18 20 19 18 20 23 24 22 19 17 16 16 16 15 15 16 15 15 15 15 15 15 13 11 10 10 11 13 15 16 15 14 14 14 14 15 16 16 16 15 14 13 13 12 11
16 16 16 16 16 17 17 17 16 15 15 13 11 10 11 11 11 11 11 12 11 10 10 9 8 8 6 7 9 9 10 11 12 12 12 13 14 15 15 16 16 17 18 17 18 20 22 21 20 18 16 16 16 15 15 16 16 16 15 16 16 15 13 12 11 11 12 14 15 16 15 14 14 14 15 15 16 17 18 17 16 15 14 14 13
14 15 15 16 16 17 16 16 16 15 13 12 11 10 11 10 10 10 11 13 12 11 11 10 9 9 8 7 8 9 9 11 12 12 12 13 14 14 13 14 15 15 16 16 16 17 19 19 18 18 17 17 16 15 16 17 17 16 16 16 17 16 14 12 11 12 13 14 15 16 15 14 14 14 15 15 16 17 19 19 18 17 16 15 15
14 14 14 14 15 16 16 16 16 14 13 13 12 10 10 9 10 10 11 12 12 11 10 10 10 10 9 8 7 9 10 11 12 13 13 12 12 12 11 13 14 15 15 13 13 16 18 17 17 17 17 18 17 16 16 16 17 17 17 17 18 17 14 13 12 12 14 15 15 16 15 14 14 14 15 15 16 17 19 20 20 19 18 17 16
14 13 13 13 14 15 16 17 16 14 13 13 12 10 8 9 9 10 11 11 11 10 10 10 11 11 10 10 8 9 11 11 12 13 13 13 13 13 12 13 14 15 15 13 12 14 17 18 17 17 17 18 18 16 15 16 18 18 18 18 19 17 15 13 13 12 14 16 16 16 16 15 14 14 15 15 16 17 19 21 21 20 19 18 18
15 14 14 14 14 14 16 17 16 14 13 12 11 8 8 8 9 10 11 11 10 10 10 10 11 12 11 11 9 10 11 11 11 13 13 14 15 16 15 15 14 15 15 14 13 14 16 18 18 18 18 18 18 17 16 16 18 18 18 19 19 18 16 15 13 13 15 16 17 17 16 15 15 15 15 15 16 17 18 20 22 22 20 19 19
14 15 15 15 15 14 16 17 15 14 13 12 11 8 8 8 8 10 11 11 10 10 10 9 11 12 12 11 10 11 12 11 11 12 13 13 14 16 16 16 15 15 15 14 13 15 17 18 19 20 20 19 19 19 19 17 17 18 18 19 19 18 17 16 14 13 15 17 17 17 17 16 15 15 15 16 16 17 17 19 21 22 22 21 20
13 14 15 16 16 15 15 16 15 13 13 13 11 9 8 7 8 8 10 11 11 10 10 10 11 11 12 12 11 11 12 11 11 12 12 12 13 15 16 16 16 17 17 16 14 14 16 18 18 20 21 21 20 20 20 18 18 18 19 20 20 20 19 18 16 15 15 17 18 18 17 16 16 15 15 16 16 16 17 18 19 21 23 22 22
12 14 15 16 16 15 15 16 15 13 14 13 11 9 8 7 7 7 8 10 11 11 10 11 11 11 12 13 12 12 13 12 12 13 13 13 13 13 14 15 16 18 18 19 17 14 15 16 17 19 21 22 21 21 21 20 19 18 19 20 21 21 21 19 18 16 16 18 19 19 18 17 17 16 16 16 16 16 16 17 18 20 21 23 23
11 13 14 16 16 15 14 15 15 14 14 13 11 9 8 7 6 5 7 8 10 11 11 11 11 11 12 12 12 13 14 14 14 14 14 14 13 12 12 13 16 18 19 19 18 17 15 15 16 17 20 22 22 22 22 21 20 19 19 21 22 22 22 21 19 17 16 17 20 20 19 18 17 17 16 16 16 15 15 16 17 18 19 21 23
10 11 13 14 15 14 13 14 15 14 13 13 10 9 8 6 4 4 5 7 8 9 9 9 9 10 11 11 12 12 14 15 15 15 14 13 12 11 10 12 14 16 18 19 20 19 18 15 15 17 19 22 23 22 22 22 22 20 20 22 22 23 24 22 21 19 17 17 20 21 20 19 18 17 17 16 15 15 15 15 16 17 18 19 21
9 9 11 12 12 13 13 13 14 14 13 12 10 9 7 5 3 3 5 6 7 7 8 7 7 7 8 10 11 11 12 14 15 15 14 13 12 11 11 11 12 13 16 19 19 20 19 18 16 16 18 21 22 23 23 22 23 22 21 22 23 24 24 23 22 20 18 17 20 22 21 20 19 18 17 17 16 15 15 15 15 16 18 19 20
7 7 8 9 10 11 11 12 13 14 13 12 10 9 7 5 4 3 5 7 8 9 9 9 8 6 6 7 9 11 12 13 14 15 15 15 14 13 13 13 13 13 14 17 19 19 19 20 18 16 17 19 21 22 23 23 23 23 22 23 24 24 25 24 23 21 20 18 20 22 22 21 21 20 18 18 17 16 15 15 15 16 17 18 20
5 6 6 8 9 9 10 11 12 13 13 12 10 9 8 7 5 5 6 7 8 9 10 11 11 10 8 7 7 9 11 12 14 14 15 16 16 15 15 15 15 15 14 15 17 19 19 20 21 19 18 19 21 23 23 23 24 24 24 24 25 25 26 25 24 23 21 19 19 22 23 22 21 21 20 19 17 17 16 15 15 15 16 17 19
4 5 6 7 8 9 9 10 11 12 13 12 11 10 9 9 8 8 8 8 9 9 10 10 11 11 10 9 8 8 9 10 12 14 15 15 15 16 15 15 16 17 16 15 15 17 20 21 22 21 20 20 21 23 25 24 24 25 25 24 26 27 26 26 25 25 23 21 20 21 23 23 23 22 21 19 18 17 17 16 15 15 15 16 17
4 5 6 6 7 8 8 8 9 11 12 12 12 12 11 10 10 10 9 10 10 10 11 11 10 10 10 10 10 10 9 9 10 11 13 14 14 14 15 16 16 17 17 17 16 16 20 23 23 23 22 21 21 23 25 25 25 25 25 26 26 27 27 26 25 25 24 23 22 22 24 25 24 23 22 20 19 19 18 17 16 15 15 15 16
4 4 5 5 6 6 7 7 7 9 12 12 12 12 12 11 12 12 11 11 11 11 11 11 11 11 10 10 10 10 11 11 10 10 10 10 12 13 15 15 16 16 16 17 18 17 19 22 24 24 24 23 22 22 24 26 26 25 26 26 26 27 28 27 26 25 25 25 24 23 24 26 25 25 24 22 21 20 19 18 17 16 15 15 15
3 3 4 4 4 5 5 6 6 7 10 12 12 12 12 12 12 12 12 12 12 12 13 13 12 12 11 11 10 10 11 11 12 11 10 9 9 10 13 15 16 16 16 17 18 18 19 21 23 25 25 24 23 23 24 26 27 27 27 26 26 28 29 28 29 28 27 27 25 24 25 27 27 26 26 24 22 22 20 19 18 17 16 15 15
4 3 3 4 3 3 4 5 5 6 8 10 12 12 13 13 13 13 14 14 14 14 14 15 15 14 13 13 12 12 11 12 12 12 12 11 10 9 10 13 15 16 17 17 18 19 20 22 24 25 25 25 24 23 23 25 28 28 28 27 26 28 29 30 32 31 29 27 26 24 25 27 28 28 27 26 24 23 21 20 19 18 17 15 15
5 4 4 4 4 3 4 4 4 5 6 8 10 12 13 14 14 15 15 16 16 16 16 17 17 17 16 15 15 14 14 13 12 12 12 12 11 10 9 10 13 15 17 17 18 19 20 22 24 25 26 26 26 25 24 25 27 29 29 28 27 28 29 31 33 33 30 28 26 25 26 28 30 30 29 28 26 24 23 21 20 19 17 16 15
11 8 6 4 4 4 4 5 5 5 6 7 9 10 12 13 14 15 16 17 18 18 19 19 19 19 19 18 17 17 16 15 14 14 13 13 12 12 11 10 11 13 15 17 19 19 20 21 23 25 26 26 25 24 24 25 27 29 30 29 29 29 29 31 34 33 30 28 27 27 28 29 30 31 31 29 28 26 24 22 22 20 19 17 16
16 14 12 10 8 6 4 4 5 6 7 8 9 10 12 13 14 15 16 17 18 19 20 20 20 21 21 21 20 20 19 18 17 17 16 15 14 13 13 12 12 12 13 15 18 19 20 21 22 24 26 27 26 24 24 25 26 28 29 30 30 30 31 32 33 32 30 29 29 29 30 30 30 32 33 31 30 29 26 24 23 21 20 19 18
20 19 18 16 15 13 11 9 6 5 5 7 8 10 12 13 15 16 17 18 19 19 20 20 20 21 21 21 21 21 21 21 20 19 19 18 17 16 15 15 14 14 14 14 15 18 20 21 21 22 24 26 28 26 24 24 25 26 27 28 29 30 32 32 32 33 32 30 30 31 31 31 31 33 34 34 33 32 29 26 24 23 22 20 19
20 20 20 20 19 18 17 16 14 13 11 9 8 7 8 9 11 12 14 16 17 18 19 20 21 21 21 21 21 21 21 22 22 22 21 21 20 19 18 17 16 16 16 15 15 16 19 21 22 21 22 24 27 27 26 25 26 27 26 26 27 29 32 33 33 35 35 33 33 33 32 32 33 34 35 36 35 33 32 29 26 25 24 22 21
17 18 18 18 18 18 18 18 17 16 16 15 13 12 12 12 12 12 12 13 14 15 16 17 19 20 21 21 22 22 21 21 21 22 22 22 22 22 21 20 19 19 18 17 17 17 17 19 21 21 21 22 24 26 27 27 27 28 27 26 27 28 30 33 34 35 36 36 35 34 34 33 34 36 37 36 35 35 34 31 29 27 26 24 23
15 15 15 15 16 16 16 16 16 16 16 16 15 15 14 14 14 14 15 15 15 16 16 16 17 18 19 20 21 22 22 22 22 21 22 22 22 23 23 23 22 21 21 20 19 19 18 18 19 20 21 22 22 24 26 28 28 29 29 29 29 29 30 32 34 35 36 37 36 36 36 36 35 37 38 38 37 36 35 33 31 29 28 27 25
13 13 13 13 13 13 13 13 14 14 14 15 15 14 14 15 15 15 15 15 16 17 17 17 17 18 18 19 19 21 22 22 23 23 22 22 22 22 23 24 24 24 23 23 22 21 20 19 20 20 21 21 22 23 24 26 29 30 30 30 31 30 31 32 34 35 36 37 36 36 37 37 36 36 38 39 38 37 36 34 32 31 30 29 28
11 11 11 12 12 12 12 12 12 12 13 13 13 13 14 14 15 15 15 15 16 17 17 18 18 19 19 19 19 20 20 21 22 23 23 23 22 22 22 23 25 25 25 25 25 24 22 22 22 21 21 21 22 24 25 25 27 29 30 30 30 30 31 32 33 35 36 36 36 37 38 37 35 35 37 40 40 38 37 35 34 33 33 32 29
9 10 10 11 11 12 12 13 13 13 13 12 12 13 13 13 14 15 15 16 16 16 17 18 19 19 20 21 21 22 21 21 21 21 22 23 23 23 22 22 23 25 26 27 27 26 25 24 24 23 23 22 22 23 25 24 25 27 30 31 30 29 30 32 32 33 34 34 36 39 41 40 37 36 37 40 42 41 38 37 36 35 35 34 32
10 10 11 11 11 12 12 13 13 13 13 13 13 14 14 14 14 15 15 16 16 17 17 17 18 19 20 21 22 24 24 24 23 22 22 22 23 23 24 23 23 24 25 27 29 29 27 26 26 25 24 24 24 24 24 24 25 26 29 31 32 30 31 32 33 33 33 33 35 39 42 42 42 41 39 40 41 41 39 38 38 37 37 36 35
12 13 12 12 12 11 12 13 13 13 14 15 15 15 15 15 16 16 16 16 17 17 18 18 18 19 20 21 22 24 25 26 26 25 23 22 22 22 23 24 23 23 24 26 28 30 29 28 28 28 26 26 26 25 24 24 24 26 27 30 32 33 33 33 34 35 34 33 34 37 40 42 44 43 42 41 39 38 39 40 40 40 40 39 38
15 15 14 14 14 14 13 14 14 15 16 16 16 17 17 17 17 17 18 18 18 18 19 19 19 20 20 20 21 22 24 25 26 27 26 24 22 21 22 23 23 24 24 25 26 29 30 30 30 30 29 28 28 27 26 25 25 25 26 28 30 33 35 35 36 37 37 36 36 37 40 42 43 42 41 41 40 39 40 42 43 44 44 43 41
17 17 17 16 16 16 16 16 16 18 18 17 17 19 19 19 19 19 19 19 19 20 20 20 20 20 21 21 21 21 22 24 25 26 27 26 24 22 21 22 23 23 24 25 26 27 29 30 30 31 31 31 30 29 28 27 26 27 27 27 29 31 34 36 37 40 41 40 40 40 41 42 42 42 41 42 43 42 42 43 44 46 46 45 43
18 18 18 18 18 18 18 18 18 19 20 20 19 20 20 21 21 21 21 21 20 20 21 21 21 21 22 22 22 22 22 22 24 25 26 26 26 24 22 21 21 22 23 24 25 26 28 29 30 31 32 33 32 31 30 29 28 28 29 28 28 29 32 34 36 39 42 44 44 44 43 43 42 42 43 44 46 46 44 43 44 46 47 45 44
18 18 18 18 19 19 19 19 19 19 21 22 23 22 21 22 23 23 24 23 22 22 21 21 22 22 23 23 23 23 23 22 23 23 25 25 25 25 23 22 21 22 23 24 25 26 27 29 29 31 32 33 34 33 32 31 31 30 30 30 30 29 30 32 33 36 40 43 44 45 45 46 45 44 43 45 48 49 48 46 46 46 47 46 45
18 19 19 18 19 19 20 20 20 20 20 21 23 23 23 23 23 24 25 25 25 24 22 22 22 23 24 24 24 25 25 24 23 23 23 24 24 24 24 23 22 21 22 23 24 26 27 28 29 30 32 34 35 35 34 33 33 33 32 31 31 31 31 31 31 33 35 38 41 44 45 46 47 46 45 46 47 48 49 49 49 48 47 47 46
19 19 19 19 19 20 20 20 21 21 20 20 21 23 23 23 24 25 25 26 26 26 24 23 23 23 24 25 26 26 26 26 25 24 23 23 23 23 23 23 22 22 21 21 22 24 26 28 29 30 32 33 35 36 36 35 34 34 34 33 33 32 32 32 31 31 33 34 37 41 44 46 47 47 47 47 48 49 49 49 49 49 49 48 47
20 20 19 20 20 21 21 21 22 22 22 21 21 22 23 23 24 24 25 26 26 26 26 25 24 24 25 26 27 27 27 27 26 25 24 24 23 22 21 22 22 22 21 21 21 22 24 27 29 30 32 33 35 36 37 37 36 36 36 35 35 34 33 33 32 31 32 32 34 37 41 44 46 48 48 48 49 50 49 48 48 49 49 49 48
20 20 20 20 20 21 21 21 22 23 23 23 22 22 23 23 24 24 25 25 26 26 26 26 25 25 25 26 28 28 28 28 27 26 25 24 23 22 21 21 21 21 21 21 21 21 22 24 27 30 32 34 35 36 38 38 38 38 38 37 37 36 35 34 34 33 32 32 33 35 37 39 41 43 46 48 49 50 50 50 49 49 49 49 49
20 19 20 20 20 21 21 21 21 22 23 23 23 23 23 24 24 24 25 25 25 25 25 26 26 26 25 26 28 29 29 29 28 27 25 24 23 23 21 20 20 20 20 21 21 21 21 22 25 28 31 34 36 37 38 40 40 40 40 39 39 38 37 36 36 36 34 33 33 34 35 36 36 37 39 43 45 47 49 50 51 51 51 50 49
21 20 20 21 21 22 22 23 22 22 22 22 23 23 23 23 23 23 24 24 24 23 24 25 26 26 25 26 27 29 30 30 29 27 26 25 24 24 23 21 21 21 20 21 22 22 22 22 23 26 28 32 35 38 39 40 42 42 42 41 41 40 39 38 37 37 37 36 35 35 36 36 36 35 36 38 40 42 44 47 50 51 51 51 50
23 23 22 22 23 23 22 22 22 21 21 21 22 22 22 22 22 23 23 24 24 23 24 25 25 26 26 27 27 28 30 31 30 28 27 26 25 24 24 23 22 22 22 22 23 24 25 25 25 26 27 29 33 37 40 41 42 44 44 43 43 42 41 40 39 39 39 38 37 37 37 37 36 36 36 37 38 38 39 41 44 47 48 50 50
23 23 23 23 24 23 21 20 19 19 20 20 21 21 22 22 22 23 24 24 25 24 24 24 25 25 26 28 28 28 30 31 30 29 28 27 26 25 24 24 23 23 23 24 24 26 27 28 28 30 31 31 32 35 39 42 43 44 45 45 45 44 43 42 41 40 40 40 39 38 39 39 38 36 36 37 38 38 39 39 40 41 43 44 45
23 23 23 23 23 22 20 18 19 19 19 19 20 20 21 21 22 22 23 24 25 25 24 24 24 25 26 28 29 29 30 31 31 30 30 29 28 26 25 25 25 24 24 25 25 27 28 30 31 33 35 36 36 36 38 41 43 45 46 46 46 46 45 44 42 42 42 41 41 40 41 41 40 38 38 38 38 38 39 39 39 40 40 41 41
22 22 23 23 23 21 19 18 18 19 20 20 20 20 20 20 21 21 22 24 25 26 25 24 25 25 25 27 28 29 30 32 33 33 32 31 30 29 27 26 26 25 25 26 26 27 29 31 34 36 39 41 41 39 38 40 42 44 45 46 46 46 46 45 45 44 43 42 42 41 41 42 42 40 39 39 39 39 39 39 39 40 40 41 41
23 23 22 22 22 20 19 18 18 19 20 20 21 21 21 21 21 22 23 24 26 28 28 27 26 26 25 25 27 29 30 32 34 34 34 33 32 31 29 28 27 26 26 26 27 28 30 33 36 39 41 43 43 40 38 38 40 42 44 46 46 46 46 46 46 46 45 44 43 42 42 42 43 42 41 40 40 40 41 41 40 40 40 40 41
24 23 22 22 21 20 19 19 19 19 20 21 22 23 23 24 24 24 24 25 27 28 29 29 29 28 26 25 26 28 30 32 33 35 35 34 33 33 32 30 29 28 27 27 28 29 32 34 37 40 43 45 43 40 36 36 39 41 42 43 45 45 44 44 46 46 46 45 44 43 42 42 43 43 42 41 41 41 41 42 42 41 40 40 40
23 22 21 21 20 20 19 20 20 20 21 22 23 24 25 26 27 27 27 27 28 29 29 30 30 30 29 27 26 27 30 31 33 34 35 35 34 34 34 32 30 29 28 28 29 30 32 35 38 42 45 45 42 37 34 34 37 39 39 39 42 43 42 42 44 45 46 46 46 44 43 42 42 43 43 43 42 42 42 42 43 43 42 41 41
21 21 22 21 21 21 21 21 22 22 23 24 24 25 26 27 28 29 29 30 30 30 30 31 31 31 31 29 28 28 29 31 33 34 35 35 34 33 33 33 31 29 29 28 29 30 33 36 40 44 47 46 40 34 31 32 34 36 36 37 39 40 41 41 42 43 44 46 46 46 44 43 42 42 42 43 43 43 43 42 43 44 43 43 42
Wind_Direction
260 260 264 265 265 267 269 270 272 272 272 275 276 272 268 267 268 270 275 282 291 300 304 300 289 283 283 272 248 235 231 226 224 226 228 232 235 237 242 247 246 242 239 237 235 232 225 221 222 218 213 215 220 221 217 219 222 223 225 227 230 233 234 244 253 238 213 205 202 201 199 197 198 199 203 205 202 203 206 205 201 199 199 194 185
259 260 261 261 260 263 264 265 268 269 267 268 272 273 266 263 265 268 273 277 281 286 292 295 292 282 274 267 259 248 238 233 230 228 226 230 238 241 245 249 248 243 241 238 237 237 233 227 224 218 215 216 219 222 220 220 223 225 227 227 229 232 234 239 248 239 214 206 205 202 199 199 202 204 207 210 207 205 207 208 205 202 201 198 191
258 258 257 256 256 258 261 264 264 264 263 262 264 266 263 262 263 265 269 271 271 276 282 288 290 287 276 259 255 253 247 243 240 237 237 242 248 248 247 249 246 244 245 241 237 237 236 233 231 225 221 220 220 223 223 223 224 226 228 229 230 233 235 237 244 238 216 209 208 203 199 200 206 209 211 213 210 208 209 210 209 205 203 202 197
258 257 255 253 254 255 259 264 263 260 260 260 259 257 259 262 264 266 268 268 268 270 274 278 281 283 281 268 258 256 255 254 249 246 249 252 254 253 252 252 248 247 248 245 238 233 233 234 235 231 227 224 222 223 224 224 225 227 228 229 230 232 235 236 241 237 218 210 212 206 200 202 209 214 216 217 214 210 210 212 211 208 206 204 202
259 257 255 252 251 253 256 260 261 258 256 255 254 252 254 258 264 269 272 275 272 267 267 268 269 270 270 270 267 261 257 256 252 248 249 251 253 255 257 257 255 253 252 248 240 231 228 233 235 233 231 227 223 224 224 225 227 228 226 228 229 230 233 234 236 234 217 209 213 210 204 205 211 218 220 221 219 214 212 213 213 211 208 207 206
260 260 259 256 253 253 255 254 255 254 249 247 246 246 251 258 265 272 276 277 273 268 266 262 260 263 263 265 266 264 260 255 253 253 251 248 248 251 257 262 259 257 255 249 244 238 232 233 235 235 236 233 227 225 224 226 228 227 224 226 229 229 231 230 230 231 218 208 210 211 209 208 213 219 223 224 222 218 215 215 215 214 212 210 209
262 263 266 265 259 258 257 254 253 253 248 245 245 243 249 260 269 275 275 271 269 270 266 261 260 257 255 257 260 263 265 260 258 259 254 245 241 244 255 268 266 258 254 248 243 243 240 236 235 236 236 235 232 229 228 230 230 226 222 224 227 228 227 225 227 228 220 210 206 209 211 212 214 219 224 225 224 221 217 217 217 217 216 214 213
264 265 269 271 266 261 259 257 254 253 251 249 249 247 249 259 270 276 276 273 272 271 265 262 259 254 251 253 252 255 260 260 259 261 256 247 243 245 254 267 271 261 253 249 241 239 242 240 236 237 237 236 234 229 229 233 232 229 226 224 225 226 223 222 227 227 221 213 206 207 211 214 214 218 223 224 224 222 219 218 218 218 219 218 217
265 265 267 271 270 264 261 259 256 253 252 251 250 248 249 260 271 274 276 277 276 275 272 266 259 257 256 254 249 250 258 260 260 262 262 255 249 249 254 261 266 261 250 247 243 237 240 241 237 237 238 237 235 230 227 231 232 231 230 227 225 224 222 222 227 228 223 215 209 208 212 214 214 216 220 222 222 221 220 219 219 219 219 219 220
267 266 265 268 271 268 263 261 258 254 250 249 248 245 250 262 271 277 282 285 286 285 281 274 267 261 257 257 256 255 260 263 263 266 267 263 254 248 250 255 261 261 252 246 244 241 243 245 241 238 239 238 239 236 231 230 231 230 230 230 226 223 221 223 227 228 224 217 211 211 214 216 215 215 218 220 220 219 218 219 221 221 220 219 220
270 268 265 265 269 270 267 262 259 253 247 245 243 243 250 259 268 281 289 294 296 294 289 281 275 266 258 258 259 258 260 261 261 262 262 263 261 252 249 253 259 262 258 248 243 241 244 247 245 241 240 239 239 239 236 232 230 231 230 230 228 224 222 223 227 229 225 219 213 212 216 218 217 216 218 219 219 218 218 218 220 221 222 221 221
272 268 266 264 265 269 269 265 260 252 245 242 240 245 253 260 272 293 301 302 301 298 294 286 278 269 263 260 258 257 259 258 256 257 260 265 269 264 258 256 259 262 259 249 240 236 239 244 245 241 238 237 236 237 237 234 232 232 230 228 226 225 224 223 225 228 227 221 216 214 216 218 218 219 220 221 221 220 219 219 220 222 223 223 222
276 270 267 264 263 266 269 267 262 254 245 240 238 246 255 266 285 315 320 318 316 309 304 297 287 272 264 262 259 257 257 257 257 258 261 267 270 269 266 260 258 260 256 247 239 235 237 242 246 244 238 235 234 235 237 236 234 233 231 228 224 225 226 223 223 226 226 223 219 216 216 218 219 221 222 223 224 223 222 221 222 223 224 224 224
283 275 271 268 264 265 269 270 264 254 245 239 239 245 254 268 292 330 339 343 347 340 331 324 313 288 271 265 262 261 259 259 261 261 259 262 266 267 267 265 264 263 256 246 241 240 240 243 248 249 242 234 231 233 235 235 235 234 231 228 225 225 226 225 224 226 226 224 220 217 217 217 219 222 223 224 226 227 227 226 225 224 224 225 225
285 282 278 276 272 269 270 272 267 256 245 239 241 247 255 268 286 323 340 350 0 4 3 0 357 341 310 285 272 269 267 265 266 265 262 261 264 265 264 265 267 266 261 250 244 242 242 242 243 245 245 238 233 234 234 233 235 235 232 228 225 225 226 226 226 226 226 225 221 218 217 218 219 222 223 225 227 229 231 232 231 229 227 226 225
291 292 290 286 281 276 272 273 270 259 246 243 245 248 257 269 281 303 321 332 346 358 7 11 15 13 360 335 303 282 275 274 273 271 269 266 263 262 260 260 258 255 256 254 247 241 240 241 237 237 242 242 238 236 236 234 235 236 234 230 227 225 226 226 226 227 227 227 223 218 217 219 220 222 224 225 228 230 232 234 235 234 231 229 227
319 313 307 296 287 281 276 274 271 259 246 243 247 252 259 271 280 291 304 314 326 337 348 359 7 12 13 6 350 323 300 287 281 276 273 270 267 264 261 257 253 250 249 251 250 241 237 238 235 233 237 242 241 238 237 236 234 236 235 231 228 226 226 225 224 225 226 226 224 219 217 219 220 222 224 225 229 232 233 235 237 238 236 232 230
343 326 316 305 293 285 281 279 271 257 245 241 246 253 261 270 279 286 295 306 315 324 330 337 345 353 359 3 2 353 338 321 305 292 282 275 271 268 265 259 256 255 252 250 250 244 239 238 237 235 236 240 241 238 237 236 234 235 235 233 230 228 227 227 224 224 226 227 225 222 218 218 220 222 223 225 229 231 233 234 236 238 237 234 231
349 330 322 314 300 291 288 286 275 254 242 241 246 254 263 271 279 286 294 302 309 315 320 324 328 333 336 342 348 348 344 340 336 329 313 295 279 269 266 265 262 261 258 254 250 247 244 242 240 238 238 239 240 238 235 235 236 236 236 236 234 231 230 228 226 224 226 229 228 225 221 217 219 221 223 225 227 230 231 232 233 235 236 234 231
348 330 327 322 309 300 295 293 284 258 242 241 246 254 264 271 279 287 293 299 303 307 310 313 316 318 320 322 326 328 329 333 337 338 336 327 308 282 268 266 266 265 264 261 255 250 246 243 242 240 239 240 243 242 238 236 237 236 236 237 236 234 230 228 228 227 226 229 230 229 225 219 218 220 222 225 227 229 230 230 231 232 233 232 230
0 346 337 327 317 312 305 297 290 271 251 245 249 256 263 270 276 282 288 292 296 299 301 303 305 307 309 310 311 311 312 316 321 325 329 332 330 315 288 270 265 264 264 264 261 256 249 245 243 242 240 240 242 245 244 240 237 235 234 235 236 234 229 226 229 229 227 228 230 232 230 223 219 219 221 224 227 229 230 230 230 230 231 231 230
25 10 346 331 327 322 312 300 292 280 267 258 257 262 267 272 276 280 284 288 290 292 293 295 297 298 299 300 300 301 301 301 303 307 312 318 322 321 314 293 273 265 262 260 261 259 255 250 246 243 241 239 241 245 248 244 238 234 233 233 233 232 230 228 230 230 227 227 229 232 232 226 222 221 221 222 225 228 230 231 230 229 230 231 231
48 42 26 5 345 326 311 301 295 288 281 273 270 271 273 276 279 282 285 288 289 290 290 291 291 292 292 292 292 292 292 292 292 293 294 299 304 307 309 306 292 276 265 260 258 258 259 255 250 246 243 240 241 245 248 245 239 235 234 234 232 231 231 231 231 231 229 228 227 230 232 229 224 223 223 222 224 227 229 231 230 228 227 229 230
54 54 51 47 40 24 359 327 305 297 291 287 284 283 284 284 285 286 287 289 290 290 291 291 290 289 288 288 287 286 285 285 285 285 285 285 288 291 294 297 296 289 277 266 259 258 259 256 252 249 246 243 241 242 244 241 236 234 235 236 236 235 234 233 231 230 230 230 229 228 230 229 227 226 225 224 224 226 226 227 230 230 227 226 228
50 51 51 51 50 49 45 38 24 359 330 310 300 295 293 291 291 290 290 290 290 290 290 290 290 289 288 287 286 284 283 282 281 280 280 279 278 279 282 285 286 287 284 277 268 261 259 259 255 251 248 245 242 242 242 240 236 234 234 237 239 238 236 233 229 226 226 228 230 229 229 228 227 227 228 226 225 226 226 224 225 229 229 226 226
45 45 45 46 46 46 45 43 41 37 32 22 6 350 335 322 315 309 304 300 297 294 292 290 290 289 289 288 287 286 284 282 280 277 276 275 275 274 273 275 277 278 280 280 277 268 262 261 260 256 251 247 243 242 242 240 237 235 235 237 239 239 237 232 226 224 222 222 227 230 229 228 227 227 229 229 228 228 229 225 222 226 229 227 225
43 42 41 40 40 40 39 38 37 35 33 30 26 21 15 7 0 352 343 334 325 317 310 303 298 294 291 289 287 287 286 284 281 278 274 272 271 271 270 269 270 271 273 275 275 273 268 264 262 259 256 251 245 242 240 239 237 236 236 236 237 237 236 232 228 225 223 221 224 227 227 227 228 228 229 230 230 229 230 229 225 224 227 227 225
38 37 36 35 34 34 32 31 30 29 28 26 23 20 17 13 9 5 1 356 349 343 337 329 320 312 305 299 293 289 286 284 282 279 276 273 270 268 267 266 266 266 268 269 271 272 272 269 265 261 258 254 248 242 240 239 237 236 236 236 236 236 236 235 231 228 227 224 224 226 227 227 226 228 229 231 231 230 231 232 230 227 226 226 225
28 27 27 27 27 26 25 23 20 19 18 17 14 12 11 9 6 4 1 359 356 352 348 344 338 332 324 316 308 299 292 287 283 281 278 276 272 269 266 264 263 262 263 264 265 267 268 269 268 264 260 256 250 244 241 239 236 236 237 237 237 238 237 236 233 230 229 226 225 226 228 229 228 228 230 232 233 233 233 234 233 232 230 228 227
14 13 13 14 14 13 13 12 10 9 9 6 2 1 1 360 358 357 356 355 354 352 350 348 345 342 339 333 326 316 307 297 288 283 279 277 275 272 268 264 261 260 259 259 259 261 263 264 265 265 263 260 255 251 248 243 237 236 237 238 239 240 237 234 232 230 230 229 229 229 229 229 230 230 230 231 232 232 233 234 234 234 234 233 230
353 355 355 357 358 357 358 358 357 358 357 352 350 350 349 349 348 347 347 346 346 346 346 345 344 344 343 341 338 332 325 315 303 293 284 278 275 273 270 267 262 260 258 257 257 256 257 259 261 262 263 263 260 257 256 253 246 242 240 239 239 240 238 233 230 228 229 230 230 230 228 227 229 231 231 230 230 230 231 233 234 234 235 236 234
332 334 336 340 342 343 343 344 346 346 342 340 342 343 341 339 338 337 337 337 337 338 338 339 339 340 341 341 341 339 335 330 322 310 296 285 277 273 271 269 265 262 258 257 257 255 253 254 257 259 260 262 262 260 258 257 254 249 245 241 239 241 239 235 232 229 228 228 229 229 228 227 228 231 231 230 230 230 231 232 233 234 234 235 236
317 318 320 323 325 326 327 329 331 331 328 330 335 337 336 334 332 332 331 330 330 330 331 332 333 334 335 337 339 339 338 335 331 324 313 300 287 277 272 269 267 264 261 258 257 256 253 251 254 257 258 259 261 261 259 257 255 253 249 244 239 239 239 238 235 234 233 233 233 231 228 228 229 229 230 231 229 229 231 234 234 234 234 233 234
311 310 309 310 312 313 315 317 318 317 318 324 328 328 328 327 327 327 326 325 325 325 325 326 327 329 330 331 333 335 336 335 334 331 325 317 303 288 277 271 267 264 262 260 258 257 254 251 251 253 255 256 258 259 259 258 256 254 252 249 242 238 237 237 236 235 234 233 235 235 232 230 230 229 230 230 229 228 229 232 233 233 234 233 233
311 309 307 306 306 306 307 309 309 310 312 316 318 318 320 321 322 322 322 321 322 322 322 322 323 324 325 326 327 329 331 333 333 332 330 326 317 304 289 277 270 265 263 261 260 258 256 253 250 250 252 254 255 257 258 258 256 254 252 251 248 241 236 233 233 235 235 233 233 235 235 232 232 232 231 230 230 231 231 231 232 234 234 234 235
315 313 310 309 307 305 305 305 305 306 308 308 308 310 313 316 317 317 318 319 319 319 319 319 320 321 321 322 322 323 325 327 329 330 331 329 325 318 306 292 280 271 265 262 261 260 259 256 252 250 251 252 253 254 255 257 257 255 253 251 250 248 243 236 231 231 234 236 235 235 234 233 232 233 232 231 230 231 232 231 232 234 234 234 236
319 317 315 313 310 308 306 305 304 304 305 304 304 306 308 309 311 312 314 316 316 316 316 317 319 320 320 319 319 319 320 321 323 326 328 329 328 325 319 308 294 281 270 264 262 261 261 259 256 252 250 251 252 253 253 254 255 255 254 252 250 250 249 246 239 232 231 233 236 237 236 234 233 231 231 231 231 231 231 230 231 233 233 233 234
320 318 318 316 312 309 308 307 305 304 303 302 302 304 305 305 305 307 310 312 313 313 313 315 317 319 319 318 316 316 316 317 318 320 321 324 326 327 325 320 310 297 283 273 267 264 263 263 260 256 253 250 251 251 252 252 253 254 254 253 251 250 249 250 248 242 235 231 232 234 236 237 235 232 231 232 232 232 231 231 230 231 233 233 233
319 317 316 315 313 311 309 307 306 304 303 302 302 303 304 304 303 304 306 309 310 311 311 312 314 316 317 316 315 315 315 314 314 315 315 317 321 325 326 325 321 313 301 288 276 269 266 266 264 261 258 254 251 251 251 251 252 253 253 253 252 250 249 249 248 247 243 238 232 230 232 234 234 233 233 233 233 233 233 233 231 232 234 235 235
317 314 313 312 312 311 310 308 308 307 307 306 305 304 304 303 303 304 306 307 308 309 309 310 311 313 314 314 314 315 315 313 311 310 310 312 315 319 323 325 325 323 317 306 293 280 272 268 267 265 263 259 255 252 251 251 251 250 251 252 252 250 249 249 249 246 244 242 239 235 232 231 232 231 231 232 232 233 234 235 233 234 236 237 237
312 310 310 310 309 308 307 307 307 307 307 306 305 304 304 305 306 307 308 308 309 309 308 308 309 310 310 311 311 312 313 313 310 306 305 308 310 313 317 321 323 324 324 320 312 300 286 275 269 267 265 263 260 256 252 251 250 250 249 250 251 251 249 248 249 248 245 243 242 240 237 234 233 232 231 230 231 232 233 234 234 235 236 237 236
309 308 308 308 307 306 305 304 304 303 304 304 304 303 303 304 305 306 308 309 310 310 307 306 306 306 306 306 306 307 309 310 308 303 302 305 306 308 311 314 318 321 323 323 321 316 306 293 281 272 268 265 262 259 256 253 250 249 248 248 249 250 249 247 247 247 246 244 242 242 241 238 236 236 235 233 231 231 232 232 233 234 235 236 235
310 309 308 306 306 305 306 307 306 305 304 302 301 300 300 301 302 304 306 308 309 310 308 306 305 305 304 301 301 302 304 306 306 302 300 301 303 304 307 310 313 316 319 321 321 319 315 309 299 288 278 271 265 261 258 256 253 249 247 247 247 248 248 247 246 246 245 244 242 242 243 241 238 237 238 236 234 233 233 232 233 234 234 235 235
310 311 310 308 307 307 308 309 309 310 309 307 305 304 303 302 302 303 304 305 307 308 308 307 306 305 304 301 299 298 299 301 303 301 297 297 299 302 304 307 310 312 315 319 319 318 316 314 309 302 292 282 274 266 260 257 255 251 248 246 245 246 247 246 245 245 244 243 242 242 243 243 241 239 239 239 238 236 236 235 234 234 235 236 236
306 308 308 306 306 307 308 309 310 313 313 313 311 308 306 306 305 304 304 305 305 306 307 307 307 306 306 304 301 298 296 297 298 298 295 293 294 297 300 303 306 308 312 315 317 317 316 314 312 309 302 295 286 276 265 258 255 252 249 247 244 243 244 245 245 245 244 243 242 242 242 242 241 240 240 240 240 240 239 239 238 237 236 237 238
302 302 302 302 302 303 304 308 313 315 315 314 311 309 308 308 307 306 306 305 305 305 306 307 307 307 307 305 303 300 297 294 294 294 293 291 289 290 294 299 302 304 308 311 313 314 314 314 313 312 308 303 297 285 272 261 256 253 250 247 245 242 242 243 243 244 244 243 242 242 243 243 241 239 239 240 241 242 241 241 241 241 241 241 241
299 299 299 299 299 300 301 307 313 314 313 312 312 311 310 309 308 307 306 305 305 304 304 305 305 305 305 304 302 299 296 293 291 291 291 289 287 286 288 293 297 300 303 306 309 312 315 316 316 315 313 309 302 292 278 264 257 253 250 248 245 243 241 241 242 242 243 242 241 241 242 243 243 240 239 239 240 242 243 243 242 242 243 244 244
295 296 296 295 295 295 298 304 310 311 311 312 314 314 314 313 311 309 307 305 304 303 303 302 302 302 303 303 301 298 295 291 288 288 287 287 286 284 285 289 292 296 298 301 306 312 316 318 319 319 317 313 307 297 282 265 255 252 250 247 246 244 241 240 240 240 241 241 241 240 240 242 243 242 241 240 239 240 242 243 243 244 244 245 246
293 293 292 292 292 292 296 301 306 309 310 312 315 317 317 318 317 314 311 308 305 304 303 303 302 301 301 302 301 299 296 291 287 286 285 285 285 284 284 286 289 292 295 299 305 312 316 320 321 321 320 317 311 300 284 266 254 251 250 248 246 244 243 241 240 239 239 240 240 239 238 239 241 242 242 241 241 240 241 242 243 244 245 246 247
290 289 290 291 293 295 297 300 303 306 307 309 312 314 316 317 317 316 315 311 308 306 306 306 306 304 303 301 300 298 298 295 290 286 284 283 283 282 282 283 286 290 292 296 302 309 315 319 321 322 322 321 315 302 284 267 256 251 250 249 246 244 244 243 241 239 239 239 239 239 238 237 239 240 241 241 242 241 240 241 242 243 244 245 246
288 289 292 296 298 300 302 303 304 305 305 306 308 309 311 312 314 314 314 312 310 308 308 307 307 307 306 303 299 297 297 297 294 287 282 281 281 281 280 280 283 287 288 292 299 306 313 318 320 322 323 323 318 305 285 269 259 254 252 251 248 245 244 244 242 240 239 238 238 238 238 237 237 238 239 240 240 241 241 240 241 241 242 244 245
Height
5779 5778 5778 5779 5779 5778 5777 5777 5776 5776 5776 5776 5777 5777 5776 5776 5776 5775 5775 5775 5775 5775 5775 5775 5775 5774 5775 5776 5776 5776 5777 5779 5780 5781 5781 5782 5782 5782 5783 5782 5780 5781 5785 5789 5790 5790 5791 5792 5792 5792 5793 5794 5795 5795 5796 5796 5798 5799 5800 5800 5800 5800 5801 5801 5801 5801 5802 5802 5803 5804 5805 5806 5806 5807 5808 5809 5809 5810 5811 5812 5812 5813 5813 5814 5815
5777 5776 5776 5777 5777 5776 5775 5775 5775 5774 5775 5775 5775 5776 5776 5775 5774 5774 5774 5774 5774 5774 5774 5774 5773 5773 5773 5775 5775 5776 5777 5779 5779 5780 5781 5781 5780 5781 5781 5780 5780 5780 5783 5787 5788 5788 5790 5792 5792 5792 5792 5793 5794 5794 5795 5796 5796 5797 5798 5798 5798 5799 5799 5800 5800 5800 5801 5802 5803 5804 5804 5804 5805 5806 5807 5808 5809 5809 5810 5811 5812 5813 5813 5814 5814
5775 5775 5775 5775 5774 5774 5773 5773 5773 5773 5773 5774 5774 5775 5774 5774 5773 5773 5773 5773 5773 5773 5773 5773 5773 5772 5773 5774 5774 5775 5776 5778 5779 5780 5780 5780 5780 5780 5780 5780 5779 5780 5782 5784 5786 5786 5788 5790 5790 5791 5792 5792 5792 5793 5794 5794 5795 5796 5796 5796 5797 5798 5798 5799 5800 5800 5800 5801 5802 5803 5803 5803 5804 5805 5806 5807 5808 5809 5810 5811 5811 5812 5812 5813 5814
5773 5773 5773 5773 5772 5772 5772 5772 5772 5772 5772 5773 5773 5773 5773 5773 5772 5772 5772 5772 5772 5772 5773 5773 5772 5772 5772 5773 5773 5773 5774 5776 5777 5778 5779 5779 5779 5779 5779 5779 5779 5780 5781 5783 5784 5784 5785 5787 5788 5790 5790 5789 5790 5791 5792 5793 5793 5794 5794 5795 5795 5796 5797 5798 5798 5799 5799 5800 5801 5802 5802 5802 5803 5804 5805 5806 5807 5808 5809 5810 5811 5811 5812 5812 5813
5772 5772 5771 5771 5771 5770 5771 5771 5770 5771 5772 5772 5772 5772 5772 5772 5772 5772 5771 5771 5771 5772 5772 5772 5772 5772 5771 5772 5773 5772 5773 5773 5775 5776 5777 5777 5777 5778 5778 5778 5779 5779 5780 5781 5783 5783 5783 5785 5786 5787 5788 5788 5788 5789 5790 5791 5792 5792 5792 5793 5794 5795 5796 5797 5797 5798 5798 5799 5800 5801 5801 5801 5802 5803 5804 5805 5806 5807 5808 5809 5809 5810 5811 5811 5812
5770 5770 5770 5770 5769 5769 5769 5769 5768 5769 5770 5770 5771 5771 5771 5771 5771 5771 5771 5771 5771 5771 5771 5771 5771 5771 5771 5771 5772 5772 5771 5772 5773 5774 5774 5775 5775 5776 5777 5777 5778 5778 5779 5781 5782 5782 5782 5783 5784 5786 5786 5787 5787 5787 5788 5789 5790 5790 5791 5792 5793 5794 5795 5796 5796 5797 5797 5797 5798 5800 5800 5800 5801 5802 5803 5804 5805 5805 5806 5807 5808 5809 5810 5810 5811
5769 5769 5769 5769 5768 5768 5768 5768 5768 5768 5769 5769 5770 5770 5770 5770 5770 5770 5770 5770 5770 5770 5770 5770 5770 5770 5769 5770 5771 5771 5770 5771 5772 5773 5773 5774 5774 5775 5776 5776 5776 5777 5778 5779 5780 5780 5781 5782 5783 5784 5784 5785 5785 5786 5786 5787 5788 5789 5790 5790 5792 5793 5794 5795 5795 5795 5796 5796 5797 5798 5799 5799 5800 5801 5802 5803 5803 5804 5805 5806 5807 5808 5809 5809 5810
5768 5767 5767 5767 5767 5767 5767 5767 5767 5767 5767 5767 5768 5769 5769 5769 5769 5769 5769 5768 5768 5768 5768 5769 5769 5768 5767 5768 5769 5770 5769 5770 5771 5772 5772 5773 5773 5774 5775 5775 5775 5776 5777 5778 5777 5777 5778 5780 5781 5782 5782 5783 5784 5785 5784 5785 5786 5787 5788 5789 5790 5792 5793 5794 5794 5794 5795 5795 5796 5797 5798 5798 5799 5800 5800 5801 5802 5803 5804 5805 5806 5807 5808 5808 5809
5766 5766 5766 5766 5766 5766 5766 5766 5767 5767 5767 5766 5767 5768 5768 5768 5768 5768 5767 5767 5767 5767 5767 5767 5767 5766 5766 5766 5767 5768 5768 5769 5769 5770 5770 5771 5772 5773 5774 5774 5774 5774 5775 5776 5776 5775 5775 5776 5778 5779 5780 5781 5782 5783 5783 5784 5785 5786 5787 5788 5789 5791 5792 5792 5793 5793 5794 5794 5794 5795 5796 5797 5797 5798 5799 5800 5801 5802 5802 5803 5804 5805 5806 5807 5808
5765 5765 5765 5765 5765 5765 5765 5765 5766 5767 5767 5766 5766 5767 5767 5767 5767 5767 5766 5766 5766 5766 5766 5766 5766 5765 5765 5764 5765 5766 5766 5767 5767 5768 5768 5769 5770 5772 5773 5773 5773 5773 5773 5775 5775 5774 5773 5774 5776 5777 5777 5779 5780 5781 5782 5783 5784 5785 5786 5787 5788 5789 5790 5790 5791 5792 5792 5793 5793 5794 5795 5796 5796 5797 5798 5799 5800 5800 5801 5802 5803 5804 5805 5806 5807
5764 5764 5764 5764 5764 5764 5764 5764 5765 5766 5766 5766 5766 5767 5767 5767 5767 5767 5766 5765 5765 5765 5765 5765 5765 5765 5764 5764 5764 5764 5764 5765 5766 5766 5767 5767 5768 5769 5770 5771 5771 5771 5771 5772 5773 5773 5773 5773 5774 5775 5775 5777 5778 5779 5780 5781 5782 5783 5784 5784 5786 5787 5788 5789 5789 5790 5791 5791 5792 5793 5794 5795 5795 5796 5797 5798 5799 5799 5800 5800 5801 5802 5803 5804 5805
5763 5763 5763 5763 5763 5763 5763 5763 5764 5765 5765 5765 5766 5767 5767 5767 5767 5767 5766 5765 5765 5764 5764 5764 5764 5764 5763 5763 5763 5763 5763 5764 5765 5765 5765 5765 5766 5767 5768 5769 5769 5769 5769 5770 5771 5771 5771 5772 5772 5773 5773 5775 5776 5777 5778 5779 5780 5781 5782 5782 5784 5785 5786 5787 5788 5789 5789 5790 5791 5792 5793 5794 5794 5795 5796 5797 5797 5798 5799 5799 5800 5801 5802 5802 5803
5762 5762 5762 5762 5762 5762 5762 5762 5763 5764 5765 5765 5766 5766 5766 5767 5767 5767 5766 5765 5764 5763 5763 5762 5762 5763 5762 5762 5762 5762 5762 5762 5763 5763 5763 5764 5764 5765 5766 5767 5767 5767 5767 5768 5768 5769 5769 5770 5770 5771 5771 5772 5774 5775 5776 5777 5777 5779 5780 5780 5782 5784 5785 5785 5786 5787 5787 5788 5789 5790 5791 5792 5793 5794 5795 5796 5796 5797 5797 5798 5798 5799 5800 5801 5802
5761 5761 5761 5761 5761 5761 5761 5762 5762 5763 5763 5764 5765 5766 5766 5766 5767 5766 5766 5765 5764 5763 5762 5761 5761 5761 5761 5761 5761 5761 5761 5761 5761 5761 5762 5763 5763 5763 5764 5765 5765 5766 5766 5766 5766 5767 5768 5768 5769 5769 5769 5770 5771 5773 5773 5774 5775 5777 5778 5779 5780 5782 5783 5784 5785 5785 5786 5786 5787 5789 5790 5791 5792 5793 5794 5795 5795 5796 5796 5796 5797 5797 5798 5799 5800
5761 5761 5760 5760 5760 5760 5761 5761 5761 5762 5762 5763 5764 5764 5765 5765 5766 5765 5765 5764 5764 5763 5762 5761 5760 5760 5760 5760 5760 5759 5759 5760 5760 5760 5761 5761 5762 5762 5763 5763 5764 5764 5764 5764 5765 5765 5766 5766 5766 5767 5767 5767 5769 5770 5771 5772 5773 5775 5777 5777 5779 5780 5782 5782 5783 5783 5784 5784 5786 5787 5788 5789 5791 5792 5793 5794 5794 5795 5795 5795 5795 5796 5796 5797 5798
5760 5760 5760 5760 5760 5760 5760 5760 5760 5761 5761 5762 5763 5763 5764 5764 5764 5765 5764 5764 5763 5762 5761 5761 5760 5760 5759 5759 5759 5759 5758 5759 5759 5759 5759 5760 5760 5761 5762 5762 5762 5763 5763 5763 5763 5763 5764 5763 5764 5765 5766 5766 5767 5768 5769 5770 5771 5773 5774 5775 5776 5778 5779 5780 5781 5782 5782 5783 5784 5785 5786 5788 5789 5790 5792 5792 5793 5794 5794 5794 5794 5794 5795 5795 5796
5760 5760 5760 5759 5759 5759 5760 5760 5760 5760 5761 5761 5762 5762 5763 5763 5763 5763 5763 5763 5762 5761 5761 5760 5760 5760 5759 5759 5759 5758 5758 5758 5758 5758 5758 5758 5759 5759 5760 5760 5760 5760 5761 5761 5760 5761 5761 5760 5761 5763 5764 5764 5765 5766 5767 5768 5769 5771 5772 5773 5774 5775 5776 5777 5778 5780 5780 5781 5782 5783 5784 5786 5787 5789 5790 5791 5792 5792 5793 5793 5793 5793 5793 5793 5794
5761 5760 5760 5760 5759 5759 5759 5760 5760 5760 5760 5761 5761 5762 5762 5762 5762 5762 5762 5762 5761 5760 5760 5759 5759 5759 5759 5759 5758 5758 5757 5757 5756 5756 5756 5757 5757 5758 5758 5758 5758 5758 5758 5758 5758 5758 5757 5757 5759 5762 5762 5762 5763 5764 5765 5766 5767 5768 5769 5770 5771 5773 5774 5774 5776 5777 5778 5779 5780 5781 5782 5784 5785 5787 5788 5789 5790 5791 5791 5791 5791 5792 5792 5792 5792
5761 5761 5760 5760 5759 5759 5759 5759 5759 5760 5760 5761 5761 5761 5761 5761 5761 5761 5761 5760 5760 5759 5759 5758 5758 5758 5758 5758 5758 5757 5757 5756 5755 5755 5755 5755 5756 5756 5756 5756 5756 5755 5755 5755 5755 5755 5755 5755 5756 5759 5760 5760 5760 5761 5762 5763 5764 5766 5766 5767 5769 5771 5772 5773 5773 5774 5775 5776 5778 5779 5780 5782 5783 5785 5787 5787 5788 5789 5789 5790 5790 5790 5790 5790 5791
5761 5761 5760 5760 5759 5759 5759 5759 5759 5759 5759 5760 5760 5761 5761 5761 5760 5760 5759 5759 5759 5758 5758 5757 5757 5757 5757 5757 5757 5757 5756 5755 5755 5754 5754 5754 5754 5754 5754 5754 5753 5753 5752 5752 5752 5752 5752 5753 5754 5755 5757 5758 5759 5759 5760 5761 5762 5763 5764 5766 5767 5768 5770 5771 5770 5770 5772 5774 5776 5777 5778 5780 5781 5783 5785 5786 5786 5787 5788 5788 5788 5788 5788 5788 5789
5762 5761 5761 5760 5760 5759 5759 5759 5759 5759 5759 5759 5760 5760 5760 5760 5759 5759 5758 5758 5758 5757 5756 5756 5756 5755 5755 5755 5755 5755 5755 5754 5753 5753 5752 5752 5752 5752 5752 5751 5751 5751 5750 5750 5750 5750 5750 5750 5751 5753 5754 5755 5757 5757 5758 5758 5759 5760 5761 5763 5765 5766 5768 5769 5768 5769 5770 5772 5774 5776 5777 5778 5779 5781 5782 5783 5784 5785 5786 5786 5786 5787 5787 5787 5787
5762 5762 5761 5760 5760 5759 5759 5759 5758 5758 5758 5758 5758 5758 5758 5758 5758 5757 5757 5756 5756 5756 5755 5755 5754 5754 5754 5754 5754 5753 5753 5753 5752 5751 5751 5751 5750 5750 5750 5749 5749 5749 5748 5748 5748 5748 5749 5749 5749 5750 5751 5752 5754 5754 5755 5756 5756 5757 5758 5760 5762 5764 5765 5767 5767 5767 5768 5770 5772 5774 5776 5777 5778 5779 5780 5781 5782 5783 5783 5784 5784 5785 5785 5785 5785
5763 5762 5761 5761 5760 5760 5759 5759 5758 5758 5757 5757 5757 5757 5756 5756 5756 5755 5755 5754 5754 5754 5753 5753 5752 5752 5752 5752 5752 5752 5751 5751 5751 5750 5749 5749 5749 5748 5748 5747 5747 5747 5746 5746 5746 5747 5747 5747 5747 5747 5748 5749 5751 5752 5752 5752 5753 5754 5756 5757 5759 5761 5762 5764 5765 5765 5766 5768 5770 5772 5774 5775 5776 5777 5778 5779 5780 5781 5781 5782 5783 5783 5783 5784 5784
5765 5763 5762 5761 5761 5760 5759 5759 5758 5757 5757 5756 5756 5755 5755 5754 5754 5753 5753 5752 5752 5751 5751 5750 5750 5750 5749 5749 5749 5749 5749 5749 5749 5748 5748 5747 5747 5746 5746 5745 5745 5745 5744 5744 5745 5745 5745 5745 5744 5744 5745 5746 5747 5747 5748 5749 5750 5751 5753 5754 5755 5757 5759 5760 5762 5763 5764 5766 5768 5770 5771 5772 5774 5775 5776 5777 5777 5777 5778 5779 5781 5782 5782 5782 5782
5766 5765 5764 5763 5761 5760 5760 5759 5758 5757 5757 5756 5755 5755 5754 5753 5752 5752 5751 5750 5750 5749 5748 5748 5747 5747 5747 5746 5746 5746 5746 5746 5746 5746 5745 5745 5745 5744 5744 5743 5743 5742 5742 5742 5742 5743 5742 5742 5742 5743 5743 5743 5743 5744 5744 5745 5747 5748 5749 5751 5752 5754 5755 5757 5758 5760 5762 5763 5765 5766 5768 5770 5771 5772 5774 5774 5774 5774 5775 5776 5778 5779 5780 5780 5780
5768 5767 5765 5764 5763 5761 5760 5759 5758 5758 5757 5756 5755 5754 5753 5752 5752 5751 5750 5749 5748 5747 5746 5746 5745 5744 5744 5743 5743 5743 5743 5743 5743 5743 5743 5742 5742 5742 5741 5741 5740 5740 5740 5740 5740 5740 5740 5739 5740 5740 5741 5740 5740 5740 5741 5742 5743 5744 5746 5747 5749 5751 5752 5753 5754 5756 5759 5760 5761 5763 5765 5767 5768 5769 5770 5771 5771 5772 5773 5774 5775 5776 5778 5778 5778
5770 5768 5767 5765 5764 5763 5761 5760 5759 5758 5757 5756 5755 5754 5753 5752 5751 5750 5749 5748 5747 5746 5745 5744 5743 5742 5742 5741 5740 5740 5739 5739 5739 5739 5739 5739 5739 5739 5738 5738 5738 5737 5737 5737 5737 5737 5737 5737 5737 5737 5738 5738 5738 5737 5738 5738 5739 5740 5742 5743 5745 5747 5748 5750 5751 5752 5755 5757 5758 5760 5761 5763 5765 5766 5767 5767 5768 5769 5771 5772 5772 5773 5775 5776 5777
5771 5769 5768 5767 5765 5764 5763 5761 5760 5759 5758 5757 5755 5754 5753 5752 5750 5749 5748 5747 5745 5744 5743 5742 5741 5740 5739 5738 5738 5737 5736 5736 5736 5735 5735 5735 5735 5735 5735 5735 5735 5734 5734 5734 5734 5735 5735 5735 5734 5734 5735 5735 5735 5735 5735 5735 5736 5737 5738 5739 5741 5743 5744 5746 5748 5749 5751 5753 5756 5757 5758 5758 5760 5762 5764 5764 5765 5767 5768 5770 5771 5771 5772 5773 5774
5771 5770 5769 5767 5766 5765 5763 5762 5761 5760 5758 5757 5756 5755 5753 5752 5751 5749 5748 5746 5745 5744 5742 5741 5740 5738 5737 5736 5735 5734 5733 5733 5732 5732 5732 5731 5731 5731 5731 5731 5731 5731 5731 5731 5731 5731 5732 5732 5731 5732 5732 5732 5732 5732 5732 5732 5733 5733 5734 5736 5737 5739 5740 5742 5744 5746 5747 5749 5752 5754 5754 5755 5756 5758 5760 5762 5763 5764 5765 5767 5769 5770 5770 5771 5771
5772 5770 5769 5767 5766 5765 5764 5762 5761 5760 5759 5757 5756 5755 5754 5752 5751 5749 5748 5746 5745 5743 5742 5740 5739 5737 5736 5734 5733 5731 5730 5730 5729 5728 5728 5728 5728 5728 5727 5727 5727 5727 5728 5728 5727 5728 5728 5728 5728 5728 5729 5729 5729 5729 5729 5729 5730 5730 5731 5732 5733 5735 5737 5738 5740 5742 5744 5746 5750 5751 5751 5752 5753 5754 5757 5759 5760 5761 5762 5764 5765 5767 5768 5768 5769
5772 5770 5769 5767 5766 5765 5763 5762 5761 5759 5758 5757 5756 5755 5753 5752 5751 5749 5748 5746 5745 5743 5741 5739 5738 5736 5734 5733 5731 5729 5728 5727 5726 5725 5724 5724 5724 5724 5724 5723 5723 5723 5724 5724 5723 5724 5725 5725 5725 5725 5725 5726 5726 5726 5726 5727 5727 5727 5727 5728 5730 5731 5733 5735 5736 5738 5739 5742 5745 5745 5746 5747 5749 5751 5753 5755 5756 5756 5758 5760 5762 5763 5765 5766 5766
5771 5770 5768 5767 5766 5764 5763 5761 5760 5759 5758 5757 5755 5754 5753 5751 5750 5749 5747 5746 5744 5742 5741 5739 5737 5735 5733 5732 5730 5728 5726 5724 5723 5722 5721 5720 5720 5720 5720 5720 5720 5719 5719 5719 5719 5720 5721 5721 5721 5721 5722 5722 5722 5723 5723 5723 5724 5724 5724 5725 5726 5728 5729 5731 5732 5734 5736 5738 5739 5740 5742 5743 5745 5747 5749 5751 5752 5753 5755 5756 5758 5759 5760 5762 5763
5770 5769 5767 5766 5765 5764 5762 5761 5760 5758 5757 5756 5754 5753 5752 5750 5749 5747 5746 5745 5743 5741 5740 5738 5736 5734 5732 5731 5729 5727 5725 5723 5721 5719 5718 5717 5716 5716 5716 5716 5716 5716 5716 5716 5715 5715 5717 5718 5718 5718 5718 5719 5719 5719 5720 5720 5721 5721 5721 5721 5722 5724 5726 5727 5729 5730 5732 5735 5735 5736 5737 5739 5740 5742 5744 5746 5748 5749 5751 5752 5754 5755 5756 5757 5758
5768 5767 5766 5765 5763 5762 5761 5760 5758 5757 5756 5754 5753 5752 5750 5749 5748 5746 5745 5743 5742 5740 5738 5736 5735 5733 5731 5729 5727 5726 5724 5722 5720 5717 5715 5714 5713 5712 5712 5712 5712 5712 5712 5712 5711 5711 5712 5713 5714 5714 5714 5715 5715 5716 5717 5717 5717 5717 5717 5717 5718 5720 5722 5723 5724 5725 5728 5730 5730 5730 5732 5734 5735 5737 5739 5741 5742 5744 5746 5747 5749 5750 5751 5752 5753
5766 5765 5764 5763 5761 5760 5759 5758 5757 5755 5754 5752 5751 5750 5749 5747 5746 5745 5743 5742 5740 5738 5736 5735 5733 5731 5729 5728 5726 5724 5722 5720 5718 5716 5714 5712 5710 5709 5708 5708 5708 5708 5709 5708 5708 5708 5708 5709 5710 5710 5710 5711 5711 5712 5713 5713 5713 5713 5713 5714 5714 5715 5717 5718 5720 5721 5722 5724 5725 5725 5726 5728 5730 5732 5735 5737 5738 5740 5742 5744 5745 5745 5746 5748 5750
5765 5763 5762 5760 5759 5758 5757 5756 5755 5753 5751 5750 5749 5748 5746 5745 5743 5742 5741 5739 5738 5736 5734 5733 5731 5729 5728 5726 5724 5722 5721 5719 5717 5715 5713 5711 5708 5706 5705 5704 5704 5704 5705 5705 5704 5704 5704 5704 5706 5706 5706 5707 5707 5708 5709 5709 5709 5709 5709 5710 5710 5711 5712 5713 5714 5716 5717 5718 5719 5720 5721 5723 5725 5728 5730 5731 5733 5735 5737 5739 5740 5740 5741 5743 5745
5763 5762 5760 5758 5757 5755 5754 5753 5752 5751 5749 5747 5746 5745 5744 5742 5741 5740 5738 5737 5735 5734 5732 5730 5729 5727 5725 5724 5722 5720 5718 5717 5715 5713 5712 5709 5707 5705 5703 5702 5701 5700 5700 5701 5701 5700 5700 5700 5701 5702 5703 5703 5703 5704 5705 5705 5705 5705 5705 5706 5707 5707 5708 5708 5709 5710 5712 5713 5714 5715 5716 5718 5721 5723 5724 5724 5725 5728 5730 5732 5733 5733 5735 5738 5739
5762 5760 5758 5757 5755 5753 5752 5750 5749 5749 5748 5746 5744 5742 5741 5740 5738 5737 5735 5734 5733 5731 5730 5728 5726 5725 5723 5721 5720 5718 5716 5715 5713 5711 5710 5708 5706 5704 5701 5700 5698 5697 5697 5697 5697 5697 5697 5697 5697 5698 5698 5699 5699 5699 5700 5700 5700 5700 5700 5701 5702 5703 5704 5704 5704 5705 5706 5708 5709 5710 5712 5713 5715 5717 5718 5718 5719 5721 5723 5725 5726 5727 5729 5732 5734
5760 5758 5757 5755 5753 5751 5750 5748 5747 5746 5745 5744 5742 5740 5738 5737 5736 5734 5733 5731 5730 5728 5727 5725 5724 5722 5720 5719 5717 5716 5714 5712 5711 5709 5707 5706 5704 5702 5700 5698 5696 5695 5694 5693 5693 5694 5694 5693 5693 5694 5694 5695 5695 5695 5695 5696 5696 5696 5696 5696 5697 5698 5699 5700 5701 5701 5702 5703 5704 5705 5707 5708 5709 5711 5712 5713 5714 5715 5717 5719 5721 5723 5724 5726 5728
5758 5756 5755 5753 5751 5749 5747 5745 5744 5742 5741 5740 5739 5738 5736 5735 5733 5732 5730 5729 5727 5725 5723 5722 5721 5719 5718 5716 5714 5713 5711 5710 5708 5707 5705 5703 5702 5700 5698 5696 5695 5693 5692 5691 5690 5690 5690 5690 5689 5690 5690 5690 5690 5690 5691 5691 5691 5691 5691 5691 5692 5693 5694 5695 5696 5697 5697 5698 5699 5700 5701 5702 5703 5705 5706 5707 5709 5710 5711 5713 5716 5718 5720 5722 5723
5755 5754 5752 5751 5749 5747 5745 5743 5741 5739 5738 5737 5736 5735 5733 5731 5730 5728 5727 5726 5724 5722 5720 5719 5717 5716 5714 5713 5711 5710 5708 5707 5706 5704 5703 5701 5699 5698 5696 5695 5693 5691 5690 5689 5688 5687 5686 5686 5686 5685 5685 5685 5685 5685 5686 5686 5686 5686 5687 5687 5687 5687 5689 5690 5691 5692 5693 5693 5694 5695 5696 5697 5698 5699 5699 5701 5702 5704 5705 5707 5710 5712 5714 5716 5718
5753 5751 5750 5748 5746 5744 5743 5741 5739 5737 5735 5733 5732 5731 5730 5728 5727 5725 5724 5722 5721 5719 5717 5716 5714 5713 5711 5709 5708 5707 5705 5704 5703 5701 5700 5698 5697 5695 5694 5692 5691 5689 5688 5686 5685 5684 5683 5683 5682 5681 5681 5680 5680 5680 5680 5680 5680 5681 5681 5682 5682 5682 5683 5685 5685 5686 5687 5689 5690 5690 5691 5692 5693 5693 5693 5695 5696 5697 5699 5701 5703 5705 5708 5710 5712
5750 5748 5747 5745 5744 5742 5740 5738 5736 5735 5733 5731 5729 5728 5727 5725 5724 5722 5721 5719 5718 5716 5715 5713 5711 5709 5707 5706 5704 5703 5702 5701 5700 5698 5697 5695 5694 5692 5691 5689 5688 5687 5685 5684 5683 5682 5681 5680 5678 5677 5676 5676 5675 5675 5675 5674 5674 5675 5675 5676 5677 5677 5678 5679 5680 5681 5682 5683 5685 5685 5686 5687 5688 5688 5689 5690 5691 5692 5693 5694 5697 5699 5701 5704 5706
5747 5745 5743 5742 5740 5739 5737 5735 5733 5731 5730 5728 5726 5725 5723 5722 5721 5719 5718 5716 5714 5713 5711 5710 5708 5706 5704 5702 5701 5700 5698 5697 5696 5695 5693 5692 5691 5689 5688 5686 5685 5684 5682 5681 5680 5678 5677 5676 5675 5673 5672 5671 5670 5669 5668 5668 5668 5668 5669 5670 5670 5671 5672 5673 5674 5675 5676 5678 5679 5680 5681 5682 5683 5684 5684 5685 5686 5687 5688 5689 5691 5693 5695 5697 5699
5744 5742 5741 5739 5737 5736 5734 5733 5731 5729 5727 5725 5724 5722 5720 5719 5717 5716 5714 5712 5711 5709 5708 5706 5704 5703 5701 5699 5697 5695 5694 5693 5692 5691 5690 5689 5687 5686 5684 5683 5682 5680 5679 5678 5676 5675 5674 5672 5671 5669 5667 5666 5665 5663 5661 5661 5661 5661 5662 5663 5664 5665 5666 5667 5668 5669 5669 5671 5673 5675 5675 5676 5678 5679 5680 5680 5681 5682 5683 5684 5686 5688 5689 5691 5693
5742 5740 5738 5736 5734 5733 5731 5730 5728 5726 5724 5722 5721 5719 5717 5716 5714 5713 5711 5709 5707 5706 5704 5703 5701 5700 5698 5695 5693 5691 5690 5688 5688 5687 5686 5685 5684 5682 5681 5679 5678 5676 5675 5674 5673 5671 5670 5668 5667 5665 5662 5660 5658 5656 5654 5654 5654 5654 5654 5655 5657 5658 5659 5660 5662 5662 5663 5665 5667 5669 5670 5670 5672 5674 5675 5675 5676 5677 5678 5679 5681 5683 5684 5686 5688
5738 5737 5735 5733 5731 5730 5728 5727 5725 5723 5720 5719 5717 5715 5714 5713 5711 5709 5708 5706 5704 5702 5701 5700 5698 5696 5694 5692 5690 5687 5685 5684 5682 5682 5681 5680 5679 5678 5677 5675 5674 5673 5672 5670 5669 5668 5666 5664 5662 5659 5657 5653 5650 5648 5646 5645 5646 5647 5647 5648 5649 5651 5652 5654 5655 5656 5657 5659 5661 5663 5664 5664 5666 5668 5669 5670 5671 5672 5673 5674 5676 5677 5679 5681 5682
5735 5733 5732 5730 5728 5727 5725 5723 5722 5720 5718 5716 5714 5712 5711 5709 5708 5706 5705 5703 5701 5699 5697 5696 5694 5693 5691 5689 5687 5684 5682 5679 5678 5677 5676 5675 5675 5674 5672 5671 5670 5669 5668 5666 5665 5663 5661 5659 5657 5654 5651 5646 5642 5639 5637 5637 5637 5638 5639 5641 5642 5643 5646 5647 5648 5649 5651 5652 5654 5656 5658 5659 5660 5661 5663 5665 5666 5667 5668 5669 5671 5672 5674 5675 5677
5731 5729 5728 5727 5725 5724 5722 5720 5719 5717 5715 5713 5711 5709 5708 5706 5705 5703 5701 5700 5698 5695 5693 5692 5690 5688 5686 5685 5683 5680 5678 5676 5674 5672 5671 5670 5669 5668 5667 5667 5665 5664 5663 5662 5660 5659 5657 5654 5652 5649 5645 5640 5635 5631 5629 5629 5629 5630 5632 5634 5635 5636 5639 5640 5640 5642 5644 5646 5648 5650 5653 5654 5654 5655 5657 5659 5660 5662 5663 5664 5665 5667 5668 5670 5671
5727 5726 5725 5723 5722 5720 5719 5717 5716 5714 5712 5710 5709 5707 5705 5703 5701 5700 5698 5696 5694 5692 5690 5688 5685 5683 5681 5679 5678 5676 5673 5671 5669 5667 5666 5665 5664 5663 5663 5662 5661 5660 5659 5658 5656 5654 5652 5649 5646 5643 5639 5634 5629 5625 5622 5621 5622 5623 5626 5627 5628 5630 5632 5632 5634 5635 5637 5639 5641 5644 5646 5648 5649 5650 5652 5653 5654 5656 5657 5659 5660 5661 5663 5664 5666
5724 5723 5721 5720 5719 5717 5715 5714 5712 5710 5709 5707 5706 5704 5702 5700 5698 5696 5694 5692 5690 5688 5686 5684 5681 5679 5676 5674 5673 5671 5668 5667 5665 5663 5661 5660 5659 5658 5658 5657 5657 5656 5655 5653 5652 5650 5648 5645 5641 5637 5633 5629 5624 5620 5617 5616 5616 5618 5620 5621 5622 5624 5625 5626 5627 5629 5631 5632 5635 5637 5639 5641 5643 5645 5646 5647 5649 5650 5651 5653 5655 5656 5657 5659 5660